Location: Ann Arbor
(42.2710°N, 83.7260°W)
Time: 21:53:19
(UTC-04:00)

OTV 5 (USA 277) - Visible Passes

Search period start: 23 October 2017 00:00
Search period end: 02 November 2017 00:00
Orbit: 404 x 417 km, 43.0° (Epoch: 07 September)

Date Brightness Start Highest point End Pass type
(mag) Time Alt. Az. Time Alt. Az. Time Alt. Az.
23 Oct ? 20:01:10 10° WSW 20:03:24 17° SSW 20:05:37 10° S visible
24 Oct ? 19:09:42 10° W 19:12:28 24° SSW 19:15:14 10° SSE visible
26 Oct ? 19:06:20 10° SW 19:07:18 11° SW 19:08:16 10° SSW visible
